Time,TemperatureF,DewpointF,PressureIn,WindDirection,WindDirectionDegrees,WindSpeedMPH,WindSpeedGustMPH,Humidity,HourlyPrecipIn,Conditions,Clouds,dailyrainin,SoftwareType,DateUTC
2013-04-15 00:03:00,52.9,27.4,32.13,SSW,201,0.0,0.0,37,0.00,NA,NA,-99.99,wxupload 3.4,2013-04-15 04:03:00,
2013-04-15 00:05:00,52.9,27.4,32.13,SSW,201,0.0,0.0,37,0.00,NA,NA,-99.99,wxupload 3.4,2013-04-15 04:05:00,
2013-04-15 00:07:00,52.9,27.4,32.13,SSW,201,0.0,0.0,37,0.00,NA,NA,-99.99,wxupload 3.4,2013-04-15 04:07:00,
2013-04-15 00:11:00,52.7,27.3,32.13,SSW,201,0.0,0.0,37,0.00,NA,NA,-99.99,wxupload 3.4,2013-04-15 04:11:00,
2013-04-15 00:17:00,52.7,27.3,32.16,SSW,205,0.0,3.0,37,0.00,NA,NA,-99.99,wxupload 3.4,2013-04-15 04:17:00,
2013-04-15 00:23:00,52.9,27.4,32.16,SW,214,0.0,0.0,37,0.00,NA,NA,-99.99,wxupload 3.4,2013-04-15 04:23:00,
2013-04-15 00:29:00,52.9,27.4,32.16,SW,214,0.0,0.0,37,0.00,NA,NA,-99.99,wxupload 3.4,2013-04-15 04:29:00,
2013-04-15 00:35:00,53.1,27.6,32.16,SSW,194,0.0,0.0,37,0.00,NA,NA,-99.99,wxupload 3.4,2013-04-15 04:35:00,
2013-04-15 00:41:00,53.1,27.6,32.16,SSW,202,0.0,0.0,37,0.00,NA,NA,-99.99,wxupload 3.4,2013-04-15 04:41:00,
2013-04-15 00:47:00,53.1,28.2,32.16,South,172,0.0,0.0,38,0.00,NA,NA,-99.99,wxupload 3.4,2013-04-15 04:47:00,
2013-04-15 00:53:00,53.2,27.7,32.16,SW,216,0.0,0.0,37,0.00,NA,NA,-99.99,wxupload 3.4,2013-04-15 04:53:00,
2013-04-15 00:59:00,53.4,27.9,32.16,SSE,160,0.0,3.0,37,0.00,NA,NA,-99.99,wxupload 3.4,2013-04-15 04:59:00,
2013-04-15 01:05:00,53.6,27.4,32.16,SSW,211,0.0,0.0,36,0.00,NA,NA,-99.99,wxupload 3.4,2013-04-15 05:05:00,
2013-04-15 01:13:00,53.8,27.6,32.16,South,172,0.0,0.0,36,0.00,NA,NA,-99.99,wxupload 3.4,2013-04-15 05:13:00,
2013-04-15 01:19:00,54.0,27.7,32.16,SSW,197,0.0,0.0,36,0.00,NA,NA,-99.99,wxupload 3.4,2013-04-15 05:19:00,
2013-04-15 01:25:00,54.0,27.7,32.16,SSW,197,0.0,0.0,36,0.00,NA,NA,-99.99,wxupload 3.4,2013-04-15 05:25:00,
2013-04-15 01:31:00,54.0,27.7,32.16,SSW,197,0.0,0.0,36,0.00,NA,NA,-99.99,wxupload 3.4,2013-04-15 05:31:00,
2013-04-15 01:37:00,54.0,27.7,32.16,SSW,197,0.0,0.0,36,0.00,NA,NA,-99.99,wxupload 3.4,2013-04-15 05:37:00,
2013-04-15 01:43:00,53.8,27.6,32.16,SSW,197,0.0,0.0,36,0.00,NA,NA,-99.99,wxupload 3.4,2013-04-15 05:43:00,
2013-04-15 01:49:00,53.8,28.2,32.16,WNW,283,0.0,0.0,37,0.00,NA,NA,-99.99,wxupload 3.4,2013-04-15 05:49:00,
2013-04-15 01:55:00,53.8,28.2,32.16,WNW,283,0.0,0.0,37,0.00,NA,NA,-99.99,wxupload 3.4,2013-04-15 05:55:00,
2013-04-15 02:03:00,53.6,28.1,32.16,WNW,283,0.0,0.0,37,0.00,NA,NA,-99.99,wxupload 3.4,2013-04-15 06:03:00,
2013-04-15 02:09:00,53.4,29.2,32.16,SW,222,0.0,0.0,39,0.00,NA,NA,-99.99,wxupload 3.4,2013-04-15 06:09:00,
2013-04-15 02:15:00,53.4,29.2,32.16,SSW,213,0.0,0.0,39,0.00,NA,NA,-99.99,wxupload 3.4,2013-04-15 06:15:00,
2013-04-15 02:21:00,53.2,29.0,32.13,South,184,0.0,0.0,39,0.00,NA,NA,-99.99,wxupload 3.4,2013-04-15 06:21:00,
2013-04-15 02:27:00,53.4,29.2,32.13,South,185,0.0,0.0,39,0.00,NA,NA,-99.99,wxupload 3.4,2013-04-15 06:27:00,
2013-04-15 02:33:00,53.4,29.2,32.13,South,176,0.0,0.0,39,0.00,NA,NA,-99.99,wxupload 3.4,2013-04-15 06:33:00,
2013-04-15 02:39:00,53.4,29.2,32.13,South,176,0.0,0.0,39,0.00,NA,NA,-99.99,wxupload 3.4,2013-04-15 06:39:00,
2013-04-15 02:45:00,53.6,28.7,32.13,SSE,164,0.0,0.0,38,0.00,NA,NA,-99.99,wxupload 3.4,2013-04-15 06:45:00,
2013-04-15 02:51:00,53.6,28.7,32.13,South,186,0.0,0.0,38,0.00,NA,NA,-99.99,wxupload 3.4,2013-04-15 06:51:00,
2013-04-15 02:57:00,53.6,28.7,32.13,South,186,0.0,0.0,38,0.00,NA,NA,-99.99,wxupload 3.4,2013-04-15 06:57:00,
2013-04-15 03:03:00,53.6,28.7,32.13,South,186,0.0,0.0,38,0.00,NA,NA,-99.99,wxupload 3.4,2013-04-15 07:03:00,
2013-04-15 03:41:00,53.4,29.2,32.16,SSW,199,0.0,0.0,39,0.00,NA,NA,-99.99,wxupload 3.4,2013-04-15 07:41:00,
2013-04-15 03:45:00,53.6,28.7,32.16,SSW,199,0.0,0.0,38,0.00,NA,NA,-99.99,wxupload 3.4,2013-04-15 07:45:00,
2013-04-15 03:49:00,53.6,28.7,32.16,SSW,199,0.0,0.0,38,0.00,NA,NA,-99.99,wxupload 3.4,2013-04-15 07:49:00,
2013-04-15 03:53:00,53.6,28.7,32.16,South,173,0.0,0.0,38,0.00,NA,NA,-99.99,wxupload 3.4,2013-04-15 07:53:00,
2013-04-15 03:59:00,53.8,28.2,32.16,SSW,210,0.0,0.0,37,0.00,NA,NA,-99.99,wxupload 3.4,2013-04-15 07:59:00,
2013-04-15 04:05:00,54.0,28.4,32.16,SSE,168,0.0,0.0,37,0.00,NA,NA,-99.99,wxupload 3.4,2013-04-15 08:05:00,
2013-04-15 04:13:00,54.0,28.4,32.16,SSW,194,0.0,0.0,37,0.00,NA,NA,-99.99,wxupload 3.4,2013-04-15 08:13:00,
2013-04-15 04:19:00,54.0,27.7,32.16,SW,215,0.0,0.0,36,0.00,NA,NA,-99.99,wxupload 3.4,2013-04-15 08:19:00,
2013-04-15 04:25:00,54.0,27.7,32.16,SSW,212,0.0,0.0,36,0.00,NA,NA,-99.99,wxupload 3.4,2013-04-15 08:25:00,
2013-04-15 04:33:00,54.0,27.7,32.16,SSE,166,0.0,0.0,36,0.00,NA,NA,-99.99,wxupload 3.4,2013-04-15 08:33:00,
2013-04-15 04:41:00,53.8,27.6,32.16,South,179,0.0,0.0,36,0.00,NA,NA,-99.99,wxupload 3.4,2013-04-15 08:41:00,
2013-04-15 04:45:00,53.8,27.6,32.16,SSE,158,0.0,4.0,36,0.00,NA,NA,-99.99,wxupload 3.4,2013-04-15 08:45:00,
2013-04-15 04:53:00,53.8,27.6,32.16,SSW,208,0.0,0.0,36,0.00,NA,NA,-99.99,wxupload 3.4,2013-04-15 08:53:00,
2013-04-15 04:59:00,53.6,27.4,32.16,SSW,208,0.0,0.0,36,0.00,NA,NA,-99.99,wxupload 3.4,2013-04-15 08:59:00,
2013-04-15 05:03:00,53.6,27.4,32.16,SSW,207,0.0,0.0,36,0.00,NA,NA,-99.99,wxupload 3.4,2013-04-15 09:03:00,
2013-04-15 05:09:00,53.4,27.2,32.16,SSW,208,0.0,0.0,36,0.00,NA,NA,-99.99,wxupload 3.4,2013-04-15 09:09:00,
2013-04-15 05:11:00,53.4,27.2,32.16,SSW,204,0.0,0.0,36,0.00,NA,NA,-99.99,wxupload 3.4,2013-04-15 09:11:00,
2013-04-15 05:17:00,53.2,27.1,32.16,SSW,204,0.0,0.0,36,0.00,NA,NA,-99.99,wxupload 3.4,2013-04-15 09:17:00,
2013-04-15 05:23:00,53.2,27.1,32.16,SSE,154,0.0,0.0,36,0.00,NA,NA,-99.99,wxupload 3.4,2013-04-15 09:23:00,
2013-04-15 05:29:00,53.2,27.1,32.16,SSE,154,0.0,0.0,36,0.00,NA,NA,-99.99,wxupload 3.4,2013-04-15 09:29:00,
2013-04-15 05:35:00,53.2,27.1,32.16,SSE,154,0.0,0.0,36,0.00,NA,NA,-99.99,wxupload 3.4,2013-04-15 09:35:00,
2013-04-15 05:41:00,53.2,27.1,32.16,SSW,206,0.0,0.0,36,0.00,NA,NA,-99.99,wxupload 3.4,2013-04-15 09:41:00,
2013-04-15 05:47:00,53.2,27.1,32.16,SSW,206,0.0,0.0,36,0.00,NA,NA,-99.99,wxupload 3.4,2013-04-15 09:47:00,
2013-04-15 05:53:00,53.1,26.9,32.16,SSW,206,0.0,0.0,36,0.00,NA,NA,-99.99,wxupload 3.4,2013-04-15 09:53:00,
2013-04-15 05:59:00,53.1,26.9,32.16,SSW,206,0.0,0.0,36,0.00,NA,NA,-99.99,wxupload 3.4,2013-04-15 09:59:00,
2013-04-15 06:05:00,53.1,26.9,32.16,SSW,201,0.0,0.0,36,0.00,NA,NA,-99.99,wxupload 3.4,2013-04-15 10:05:00,
2013-04-15 06:11:00,53.1,26.9,32.16,WNW,298,0.0,0.0,36,0.00,NA,NA,-99.99,wxupload 3.4,2013-04-15 10:11:00,
2013-04-15 06:17:00,52.9,26.8,32.16,SW,215,0.0,0.0,36,0.00,NA,NA,-99.99,wxupload 3.4,2013-04-15 10:17:00,
2013-04-15 06:23:00,52.9,26.8,32.19,WSW,238,0.0,0.0,36,0.00,NA,NA,-99.99,wxupload 3.4,2013-04-15 10:23:00,
2013-04-15 06:29:00,52.9,26.8,32.19,SSW,210,0.0,0.0,36,0.00,NA,NA,-99.99,wxupload 3.4,2013-04-15 10:29:00,
2013-04-15 06:35:00,52.9,26.8,32.19,SW,235,0.0,0.0,36,0.00,NA,NA,-99.99,wxupload 3.4,2013-04-15 10:35:00,
2013-04-15 06:43:00,52.9,27.4,32.19,SW,221,0.0,0.0,37,0.00,NA,NA,-99.99,wxupload 3.4,2013-04-15 10:43:00,
2013-04-15 06:49:00,52.7,27.3,32.19,South,189,0.0,0.0,37,0.00,NA,NA,-99.99,wxupload 3.4,2013-04-15 10:49:00,
2013-04-15 06:55:00,52.7,27.9,32.19,South,189,0.0,0.0,38,0.00,NA,NA,-99.99,wxupload 3.4,2013-04-15 10:55:00,
2013-04-15 07:01:00,52.5,27.7,32.19,South,189,0.0,0.0,38,0.00,NA,NA,-99.99,wxupload 3.4,2013-04-15 11:01:00,
2013-04-15 07:07:00,52.5,28.4,32.19,West,280,0.0,0.0,39,0.00,NA,NA,-99.99,wxupload 3.4,2013-04-15 11:07:00,
2013-04-15 07:15:00,52.5,28.4,32.19,SSE,168,0.0,4.0,39,0.00,NA,NA,-99.99,wxupload 3.4,2013-04-15 11:15:00,
2013-04-15 07:21:00,52.7,28.5,32.22,WSW,239,0.0,0.0,39,0.00,NA,NA,-99.99,wxupload 3.4,2013-04-15 11:21:00,
2013-04-15 07:27:00,52.9,29.3,32.22,SSW,208,0.0,0.0,40,0.00,NA,NA,-99.99,wxupload 3.4,2013-04-15 11:27:00,
2013-04-15 07:33:00,52.9,29.3,32.22,WSW,249,0.0,0.0,40,0.00,NA,NA,-99.99,wxupload 3.4,2013-04-15 11:33:00,
2013-04-15 07:39:00,53.1,28.9,32.22,WSW,249,0.0,0.0,39,0.00,NA,NA,-99.99,wxupload 3.4,2013-04-15 11:39:00,
2013-04-15 07:45:00,53.2,29.7,32.22,WSW,249,0.0,0.0,40,0.00,NA,NA,-99.99,wxupload 3.4,2013-04-15 11:45:00,
2013-04-15 07:53:00,53.6,30.0,32.22,SSE,156,0.0,0.0,40,0.00,NA,NA,-99.99,wxupload 3.4,2013-04-15 11:53:00,
2013-04-15 07:59:00,54.1,30.5,32.22,SSE,156,0.0,0.0,40,0.00,NA,NA,-99.99,wxupload 3.4,2013-04-15 11:59:00,
2013-04-15 08:05:00,54.7,31.0,32.22,SSE,155,0.0,0.0,40,0.00,NA,NA,-99.99,wxupload 3.4,2013-04-15 12:05:00,
2013-04-15 08:11:00,55.2,31.5,32.22,SSE,155,0.0,0.0,40,0.00,NA,NA,-99.99,wxupload 3.4,2013-04-15 12:11:00,
2013-04-15 08:17:00,55.6,30.5,32.22,SSE,154,0.0,0.0,38,0.00,NA,NA,-99.99,wxupload 3.4,2013-04-15 12:17:00,
2013-04-15 08:23:00,55.8,30.0,32.22,South,181,0.0,0.0,37,0.00,NA,NA,-99.99,wxupload 3.4,2013-04-15 12:23:00,
2013-04-15 08:29:00,56.1,31.0,32.22,SSW,209,2.0,5.0,38,0.00,NA,NA,-99.99,wxupload 3.4,2013-04-15 12:29:00,
2013-04-15 08:35:00,56.5,30.7,32.22,South,185,0.0,4.0,37,0.00,NA,NA,-99.99,wxupload 3.4,2013-04-15 12:35:00,
2013-04-15 08:43:00,57.2,30.6,32.22,SSE,162,0.0,3.0,36,0.00,NA,NA,-99.99,wxupload 3.4,2013-04-15 12:43:00,
2013-04-15 08:49:00,57.6,31.6,32.22,SSE,156,0.0,3.0,37,0.00,NA,NA,-99.99,wxupload 3.4,2013-04-15 12:49:00,
2013-04-15 08:55:00,57.9,31.3,32.22,SSW,193,0.0,4.0,36,0.00,NA,NA,-99.99,wxupload 3.4,2013-04-15 12:55:00,
2013-04-15 09:01:00,58.3,32.3,32.22,SSE,164,0.0,0.0,37,0.00,NA,NA,-99.99,wxupload 3.4,2013-04-15 13:01:00,
2013-04-15 09:07:00,58.5,31.8,32.22,SSE,162,0.0,0.0,36,0.00,NA,NA,-99.99,wxupload 3.4,2013-04-15 13:07:00,
2013-04-15 09:13:00,58.8,32.1,32.22,SSE,155,0.0,0.0,36,0.00,NA,NA,-99.99,wxupload 3.4,2013-04-15 13:13:00,
2013-04-15 09:19:00,59.0,32.3,32.22,SSE,166,0.0,0.0,36,0.00,NA,NA,-99.99,wxupload 3.4,2013-04-15 13:19:00,
2013-04-15 09:25:00,59.2,32.4,32.22,SSE,168,0.0,3.0,36,0.00,NA,NA,-99.99,wxupload 3.4,2013-04-15 13:25:00,
2013-04-15 09:31:00,59.2,32.4,32.22,SSE,153,0.0,0.0,36,0.00,NA,NA,-99.99,wxupload 3.4,2013-04-15 13:31:00,
2013-04-15 09:37:00,59.2,32.4,32.22,South,180,0.0,4.0,36,0.00,NA,NA,-99.99,wxupload 3.4,2013-04-15 13:37:00,
2013-04-15 09:43:00,59.0,32.3,32.22,SSE,157,0.0,3.0,36,0.00,NA,NA,-99.99,wxupload 3.4,2013-04-15 13:43:00,
2013-04-15 09:50:00,59.0,32.3,32.22,South,177,0.0,0.0,36,0.00,NA,NA,-99.99,wxupload 3.4,2013-04-15 13:50:00,
2013-04-15 09:58:00,59.2,33.1,32.22,SSW,206,2.0,4.0,37,0.00,NA,NA,-99.99,wxupload 3.4,2013-04-15 13:58:00,
2013-04-15 10:04:00,59.0,32.9,32.22,SSE,164,3.0,5.0,37,0.00,NA,NA,-99.99,wxupload 3.4,2013-04-15 14:04:00,
2013-04-15 10:10:00,59.0,32.9,32.22,SW,224,0.0,3.0,37,0.00,NA,NA,-99.99,wxupload 3.4,2013-04-15 14:10:00,
2013-04-15 10:16:00,59.0,32.9,32.22,South,184,0.0,8.0,37,0.00,NA,NA,-99.99,wxupload 3.4,2013-04-15 14:16:00,
2013-04-15 10:24:00,59.2,33.8,32.22,SSE,157,0.0,0.0,38,0.00,NA,NA,-99.99,wxupload 3.4,2013-04-15 14:24:00,
2013-04-15 10:30:00,59.7,34.3,32.22,WSW,244,0.0,0.0,38,0.00,NA,NA,-99.99,wxupload 3.4,2013-04-15 14:30:00,
2013-04-15 10:36:00,60.1,34.6,32.22,South,182,0.0,0.0,38,0.00,NA,NA,-99.99,wxupload 3.4,2013-04-15 14:36:00,
2013-04-15 10:42:00,60.8,35.2,32.22,South,170,0.0,6.0,38,0.00,NA,NA,-99.99,wxupload 3.4,2013-04-15 14:42:00,
2013-04-15 10:48:00,61.2,34.9,32.22,SSE,164,4.0,5.0,37,0.00,NA,NA,-99.99,wxupload 3.4,2013-04-15 14:48:00,
2013-04-15 10:54:00,61.9,35.5,32.22,SW,219,0.0,0.0,37,0.00,NA,NA,-99.99,wxupload 3.4,2013-04-15 14:54:00,
2013-04-15 11:00:00,62.8,35.0,32.22,SSE,150,3.0,4.0,35,0.00,NA,NA,-99.99,wxupload 3.4,2013-04-15 15:00:00,
2013-04-15 11:06:00,63.5,34.9,32.22,South,177,3.0,6.0,34,0.00,NA,NA,-99.99,wxupload 3.4,2013-04-15 15:06:00,
2013-04-15 11:12:00,63.5,34.9,32.22,SSE,153,3.0,5.0,34,0.00,NA,NA,-99.99,wxupload 3.4,2013-04-15 15:12:00,
2013-04-15 11:18:00,63.9,35.9,32.22,SSE,149,5.0,8.0,35,0.00,NA,NA,-99.99,wxupload 3.4,2013-04-15 15:18:00,
2013-04-15 11:24:00,64.4,35.7,32.22,South,185,0.0,4.0,34,0.00,NA,NA,-99.99,wxupload 3.4,2013-04-15 15:24:00,
2013-04-15 11:30:00,64.9,36.2,32.22,WSW,238,0.0,9.0,34,0.00,NA,NA,-99.99,wxupload 3.4,2013-04-15 15:30:00,
2013-04-15 11:38:00,65.5,35.9,32.22,NW,304,0.0,3.0,33,0.00,NA,NA,-99.99,wxupload 3.4,2013-04-15 15:38:00,
2013-04-15 11:44:00,65.8,36.2,32.22,SSE,158,0.0,4.0,33,0.00,NA,NA,-99.99,wxupload 3.4,2013-04-15 15:44:00,
2013-04-15 11:50:00,66.4,35.1,32.22,WSW,254,4.0,0.0,31,0.00,NA,NA,-99.99,wxupload 3.4,2013-04-15 15:50:00,
2013-04-15 11:56:00,66.2,34.1,32.22,South,184,2.0,4.0,30,0.00,NA,NA,-99.99,wxupload 3.4,2013-04-15 15:56:00,
2013-04-15 12:02:00,66.0,35.6,32.22,South,170,0.0,0.0,32,0.00,NA,NA,-99.99,wxupload 3.4,2013-04-15 16:02:00,
2013-04-15 12:08:00,66.2,35.8,32.22,SE,143,0.0,4.0,32,0.00,NA,NA,-99.99,wxupload 3.4,2013-04-15 16:08:00,
2013-04-15 12:14:00,66.7,35.4,32.22,SSW,202,3.0,6.0,31,0.00,NA,NA,-99.99,wxupload 3.4,2013-04-15 16:14:00,
2013-04-15 12:20:00,67.3,36.7,32.22,South,188,4.0,8.0,32,0.00,NA,NA,-99.99,wxupload 3.4,2013-04-15 16:20:00,
2013-04-15 12:28:00,67.8,34.7,32.22,SSE,149,0.0,0.0,29,0.00,NA,NA,-99.99,wxupload 3.4,2013-04-15 16:28:00,
2013-04-15 12:34:00,68.0,34.0,32.22,SW,232,2.0,5.0,28,0.00,NA,NA,-99.99,wxupload 3.4,2013-04-15 16:34:00,
2013-04-15 12:40:00,68.2,33.2,32.22,SSE,160,0.0,0.0,27,0.00,NA,NA,-99.99,wxupload 3.4,2013-04-15 16:40:00,
2013-04-15 12:48:00,67.8,32.9,32.22,South,169,3.0,9.0,27,0.00,NA,NA,-99.99,wxupload 3.4,2013-04-15 16:48:00,
2013-04-15 12:54:00,67.5,32.6,32.22,SSW,195,4.0,8.0,27,0.00,NA,NA,-99.99,wxupload 3.4,2013-04-15 16:54:00,
2013-04-15 13:00:00,67.5,32.6,32.22,SSW,199,5.0,8.0,27,0.00,NA,NA,-99.99,wxupload 3.4,2013-04-15 17:00:00,
2013-04-15 13:06:00,67.3,32.5,32.22,SW,228,3.0,5.0,27,0.00,NA,NA,-99.99,wxupload 3.4,2013-04-15 17:06:00,
2013-04-15 13:12:00,67.3,32.5,32.22,South,176,4.0,4.0,27,0.00,NA,NA,-99.99,wxupload 3.4,2013-04-15 17:12:00,
2013-04-15 13:18:00,67.5,32.6,32.22,SSW,198,0.0,0.0,27,0.00,NA,NA,-99.99,wxupload 3.4,2013-04-15 17:18:00,
2013-04-15 13:22:00,67.5,32.6,32.22,South,181,4.0,9.0,27,0.00,NA,NA,-99.99,wxupload 3.4,2013-04-15 17:22:00,
2013-04-15 13:26:00,67.5,31.7,32.22,SSE,153,5.0,6.0,26,0.00,NA,NA,-99.99,wxupload 3.4,2013-04-15 17:26:00,
2013-04-15 13:28:00,67.5,31.7,32.22,SSE,160,4.0,6.0,26,0.00,NA,NA,-99.99,wxupload 3.4,2013-04-15 17:28:00,
2013-04-15 13:34:00,67.6,31.8,32.22,SW,225,5.0,6.0,26,0.00,NA,NA,-99.99,wxupload 3.4,2013-04-15 17:34:00,
2013-04-15 13:38:00,67.6,31.8,32.22,SSE,154,4.0,5.0,26,0.00,NA,NA,-99.99,wxupload 3.4,2013-04-15 17:38:00,
2013-04-15 13:44:00,67.6,31.8,32.22,South,183,7.0,8.0,26,0.00,NA,NA,-99.99,wxupload 3.4,2013-04-15 17:44:00,
2013-04-15 13:50:00,67.1,30.4,32.22,SSE,164,2.0,6.0,25,0.00,NA,NA,-99.99,wxupload 3.4,2013-04-15 17:50:00,
2013-04-15 13:56:00,66.9,30.2,32.22,WSW,246,5.0,6.0,25,0.00,NA,NA,-99.99,wxupload 3.4,2013-04-15 17:56:00,
2013-04-15 14:04:00,66.9,31.2,32.22,SE,136,3.0,4.0,26,0.00,NA,NA,-99.99,wxupload 3.4,2013-04-15 18:04:00,
2013-04-15 14:10:00,66.4,30.7,32.22,South,169,4.0,8.0,26,0.00,NA,NA,-99.99,wxupload 3.4,2013-04-15 18:10:00,
2013-04-15 14:18:00,66.0,31.4,32.22,South,189,3.0,4.0,27,0.00,NA,NA,-99.99,wxupload 3.4,2013-04-15 18:18:00,
2013-04-15 14:24:00,65.7,31.0,32.22,South,172,6.0,6.0,27,0.00,NA,NA,-99.99,wxupload 3.4,2013-04-15 18:24:00,
2013-04-15 14:30:00,65.5,30.9,32.22,SE,136,3.0,4.0,27,0.00,NA,NA,-99.99,wxupload 3.4,2013-04-15 18:30:00,
2013-04-15 14:34:00,65.3,30.7,32.22,SSE,166,5.0,5.0,27,0.00,NA,NA,-99.99,wxupload 3.4,2013-04-15 18:34:00,
2013-04-15 14:36:00,65.3,31.6,32.22,South,171,5.0,6.0,28,0.00,NA,NA,-99.99,wxupload 3.4,2013-04-15 18:36:00,
2013-04-15 14:38:00,65.1,31.5,32.22,SSE,165,3.0,5.0,28,0.00,NA,NA,-99.99,wxupload 3.4,2013-04-15 18:38:00,
2013-04-15 14:44:00,65.3,32.5,32.22,SE,126,6.0,8.0,29,0.00,NA,NA,-99.99,wxupload 3.4,2013-04-15 18:44:00,
2013-04-15 14:48:00,65.1,32.3,32.22,South,183,3.0,5.0,29,0.00,NA,NA,-99.99,wxupload 3.4,2013-04-15 18:48:00,
2013-04-15 14:54:00,65.1,31.5,32.22,SSE,164,2.0,6.0,28,0.00,NA,NA,-99.99,wxupload 3.4,2013-04-15 18:54:00,
2013-04-15 15:00:00,65.3,32.5,32.22,SSW,213,2.0,5.0,29,0.00,NA,NA,-99.99,wxupload 3.4,2013-04-15 19:00:00,
2013-04-15 15:06:00,65.5,32.7,32.22,SSW,199,4.0,5.0,29,0.00,NA,NA,-99.99,wxupload 3.4,2013-04-15 19:06:00,
2013-04-15 15:12:00,66.0,33.1,32.22,South,183,0.0,3.0,29,0.00,NA,NA,-99.99,wxupload 3.4,2013-04-15 19:12:00,
2013-04-15 15:18:00,66.4,32.6,32.22,South,169,7.0,10.0,28,0.00,NA,NA,-99.99,wxupload 3.4,2013-04-15 19:18:00,
2013-04-15 15:24:00,66.6,32.7,32.22,South,190,2.0,5.0,28,0.00,NA,NA,-99.99,wxupload 3.4,2013-04-15 19:24:00,
2013-04-15 15:30:00,66.9,33.0,32.22,SSW,193,3.0,4.0,28,0.00,NA,NA,-99.99,wxupload 3.4,2013-04-15 19:30:00,
2013-04-15 15:36:00,67.6,32.8,32.22,South,184,0.0,8.0,27,0.00,NA,NA,-99.99,wxupload 3.4,2013-04-15 19:36:00,
2013-04-15 15:44:00,68.9,32.9,32.22,SW,214,4.0,5.0,26,0.00,NA,NA,-99.99,wxupload 3.4,2013-04-15 19:44:00,
2013-04-15 15:52:00,70.5,33.4,32.22,South,185,4.0,8.0,25,0.00,NA,NA,-99.99,wxupload 3.4,2013-04-15 19:52:00,
2013-04-15 15:58:00,71.1,32.8,32.22,SE,146,5.0,5.0,24,0.00,NA,NA,-99.99,wxupload 3.4,2013-04-15 19:58:00,
2013-04-15 16:02:00,70.5,31.3,32.22,SSW,195,6.0,10.0,23,0.00,NA,NA,-99.99,wxupload 3.4,2013-04-15 20:02:00,
2013-04-15 16:04:00,70.3,31.1,32.22,SSW,195,6.0,6.0,23,0.00,NA,NA,-99.99,wxupload 3.4,2013-04-15 20:04:00,
2013-04-15 16:06:00,70.0,31.9,32.22,SSW,211,5.0,6.0,24,0.00,NA,NA,-99.99,wxupload 3.4,2013-04-15 20:06:00,
2013-04-15 16:12:00,69.4,31.4,32.22,SSE,168,3.0,5.0,24,0.00,NA,NA,-99.99,wxupload 3.4,2013-04-15 20:12:00,
2013-04-15 16:14:00,69.1,31.1,32.22,South,181,3.0,3.0,24,0.00,NA,NA,-99.99,wxupload 3.4,2013-04-15 20:14:00,
2013-04-15 16:20:00,68.7,30.8,32.22,SSE,168,0.0,0.0,24,0.00,NA,NA,-99.99,wxupload 3.4,2013-04-15 20:20:00,
2013-04-15 16:24:00,68.5,30.6,32.22,SSW,197,0.0,6.0,24,0.00,NA,NA,-99.99,wxupload 3.4,2013-04-15 20:24:00,
2013-04-15 16:30:00,67.8,31.0,32.22,SSW,210,5.0,5.0,25,0.00,NA,NA,-99.99,wxupload 3.4,2013-04-15 20:30:00,
2013-04-15 16:36:00,66.9,30.2,32.22,South,172,2.0,4.0,25,0.00,NA,NA,-99.99,wxupload 3.4,2013-04-15 20:36:00,
2013-04-15 16:42:00,66.4,30.7,32.22,South,191,0.0,0.0,26,0.00,NA,NA,-99.99,wxupload 3.4,2013-04-15 20:42:00,
2013-04-15 16:48:00,66.0,31.4,32.22,South,188,4.0,6.0,27,0.00,NA,NA,-99.99,wxupload 3.4,2013-04-15 20:48:00,
2013-04-15 16:54:00,65.5,30.9,32.22,SSE,166,3.0,4.0,27,0.00,NA,NA,-99.99,wxupload 3.4,2013-04-15 20:54:00,
2013-04-15 17:00:00,64.9,30.4,32.22,South,187,4.0,8.0,27,0.00,NA,NA,-99.99,wxupload 3.4,2013-04-15 21:00:00,
2013-04-15 17:08:00,64.4,31.7,32.22,SSW,200,0.0,0.0,29,0.00,NA,NA,-99.99,wxupload 3.4,2013-04-15 21:08:00,
2013-04-15 17:14:00,64.2,32.4,32.22,South,181,3.0,5.0,30,0.00,NA,NA,-99.99,wxupload 3.4,2013-04-15 21:14:00,
2013-04-15 17:20:00,63.9,31.2,32.22,SW,219,4.0,5.0,29,0.00,NA,NA,-99.99,wxupload 3.4,2013-04-15 21:20:00,
2013-04-15 17:28:00,63.5,31.8,32.22,SSW,204,0.0,5.0,30,0.00,NA,NA,-99.99,wxupload 3.4,2013-04-15 21:28:00,
2013-04-15 17:34:00,63.1,32.2,32.22,West,280,0.0,0.0,31,0.00,NA,NA,-99.99,wxupload 3.4,2013-04-15 21:34:00,
2013-04-15 17:40:00,62.8,32.7,32.22,SSE,159,0.0,3.0,32,0.00,NA,NA,-99.99,wxupload 3.4,2013-04-15 21:40:00,
2013-04-15 17:46:00,62.6,32.6,32.22,SSE,165,0.0,0.0,32,0.00,NA,NA,-99.99,wxupload 3.4,2013-04-15 21:46:00,
2013-04-15 17:52:00,62.6,33.3,32.22,South,171,0.0,0.0,33,0.00,NA,NA,-99.99,wxupload 3.4,2013-04-15 21:52:00,
2013-04-15 17:58:00,62.8,33.5,32.22,South,169,2.0,4.0,33,0.00,NA,NA,-99.99,wxupload 3.4,2013-04-15 21:58:00,
2013-04-15 18:04:00,63.0,33.6,32.22,South,171,6.0,8.0,33,0.00,NA,NA,-99.99,wxupload 3.4,2013-04-15 22:04:00,
2013-04-15 18:10:00,63.1,33.8,32.22,SSW,198,0.0,3.0,33,0.00,NA,NA,-99.99,wxupload 3.4,2013-04-15 22:10:00,
2013-04-15 18:16:00,63.1,33.8,32.22,SSE,159,5.0,8.0,33,0.00,NA,NA,-99.99,wxupload 3.4,2013-04-15 22:16:00,
2013-04-15 18:22:00,63.3,34.0,32.22,SSE,156,0.0,5.0,33,0.00,NA,NA,-99.99,wxupload 3.4,2013-04-15 22:22:00,
2013-04-15 18:28:00,63.1,33.8,32.22,SSW,192,3.0,6.0,33,0.00,NA,NA,-99.99,wxupload 3.4,2013-04-15 22:28:00,
2013-04-15 18:34:00,63.0,33.6,32.22,South,187,4.0,6.0,33,0.00,NA,NA,-99.99,wxupload 3.4,2013-04-15 22:34:00,
2013-04-15 18:40:00,62.8,33.5,32.22,South,182,2.0,3.0,33,0.00,NA,NA,-99.99,wxupload 3.4,2013-04-15 22:40:00,
2013-04-15 18:46:00,62.4,33.9,32.22,SSW,192,3.0,5.0,34,0.00,NA,NA,-99.99,wxupload 3.4,2013-04-15 22:46:00,
2013-04-15 18:52:00,62.2,33.7,32.22,South,181,4.0,8.0,34,0.00,NA,NA,-99.99,wxupload 3.4,2013-04-15 22:52:00,
2013-04-15 18:58:00,61.9,33.4,32.22,South,169,5.0,8.0,34,0.00,NA,NA,-99.99,wxupload 3.4,2013-04-15 22:58:00,
2013-04-15 19:04:00,61.5,33.8,32.25,South,190,3.0,5.0,35,0.00,NA,NA,-99.99,wxupload 3.4,2013-04-15 23:04:00,
2013-04-15 19:10:00,61.3,33.7,32.25,South,187,0.0,4.0,35,0.00,NA,NA,-99.99,wxupload 3.4,2013-04-15 23:10:00,
2013-04-15 19:18:00,61.0,34.0,32.25,ESE,120,0.0,0.0,36,0.00,NA,NA,-99.99,wxupload 3.4,2013-04-15 23:18:00,
2013-04-15 19:24:00,61.0,34.0,32.25,SSW,196,0.0,0.0,36,0.00,NA,NA,-99.99,wxupload 3.4,2013-04-15 23:24:00,
2013-04-15 19:30:00,60.6,34.4,32.25,South,182,4.0,6.0,37,0.00,NA,NA,-99.99,wxupload 3.4,2013-04-15 23:30:00,
2013-04-15 19:36:00,60.4,34.2,32.25,South,181,2.0,3.0,37,0.00,NA,NA,-99.99,wxupload 3.4,2013-04-15 23:36:00,
2013-04-15 19:42:00,60.4,34.2,32.25,SSW,196,0.0,0.0,37,0.00,NA,NA,-99.99,wxupload 3.4,2013-04-15 23:42:00,
2013-04-15 19:48:00,60.3,34.1,32.25,WSW,246,0.0,0.0,37,0.00,NA,NA,-99.99,wxupload 3.4,2013-04-15 23:48:00,
2013-04-15 19:54:00,60.1,35.2,32.25,SSW,198,0.0,6.0,39,0.00,NA,NA,-99.99,wxupload 3.4,2013-04-15 23:54:00,
2013-04-15 20:00:00,59.9,35.1,32.25,South,175,3.0,5.0,39,0.00,NA,NA,-99.99,wxupload 3.4,2013-04-16 00:00:00,
2013-04-15 20:06:00,59.7,35.5,32.25,SSE,157,0.0,3.0,40,0.00,NA,NA,-99.99,wxupload 3.4,2013-04-16 00:06:00,
2013-04-15 20:12:00,59.7,35.5,32.25,SSW,195,0.0,2.0,40,0.00,NA,NA,-99.99,wxupload 3.4,2013-04-16 00:12:00,
2013-04-15 20:18:00,59.5,36.0,32.25,SSE,153,4.0,11.0,41,0.00,NA,NA,-99.99,wxupload 3.4,2013-04-16 00:18:00,
2013-04-15 20:24:00,59.4,36.4,32.25,SE,128,3.0,5.0,42,0.00,NA,NA,-99.99,wxupload 3.4,2013-04-16 00:24:00,
2013-04-15 20:30:00,59.2,36.9,32.25,South,189,0.0,3.0,43,0.00,NA,NA,-99.99,wxupload 3.4,2013-04-16 00:30:00,
2013-04-15 20:36:00,59.0,36.7,32.25,SSW,194,0.0,0.0,43,0.00,NA,NA,-99.99,wxupload 3.4,2013-04-16 00:36:00,
2013-04-15 20:42:00,58.8,37.1,32.25,South,172,4.0,4.0,44,0.00,NA,NA,-99.99,wxupload 3.4,2013-04-16 00:42:00,
2013-04-15 20:48:00,58.8,37.7,32.25,SW,231,0.0,0.0,45,0.00,NA,NA,-99.99,wxupload 3.4,2013-04-16 00:48:00,
2013-04-15 20:54:00,58.6,37.5,32.25,SSW,200,4.0,6.0,45,0.00,NA,NA,-99.99,wxupload 3.4,2013-04-16 00:54:00,
2013-04-15 21:00:00,58.5,37.4,32.25,South,173,6.0,6.0,45,0.00,NA,NA,-99.99,wxupload 3.4,2013-04-16 01:00:00,
2013-04-15 21:06:00,58.3,37.8,32.28,SSE,154,7.0,8.0,46,0.00,NA,NA,-99.99,wxupload 3.4,2013-04-16 01:06:00,
2013-04-15 21:12:00,58.1,37.6,32.28,SSW,195,4.0,8.0,46,0.00,NA,NA,-99.99,wxupload 3.4,2013-04-16 01:12:00,
2013-04-15 21:18:00,57.9,37.4,32.28,SE,141,6.0,8.0,46,0.00,NA,NA,-99.99,wxupload 3.4,2013-04-16 01:18:00,
2013-04-15 21:24:00,57.9,37.4,32.28,South,186,4.0,6.0,46,0.00,NA,NA,-99.99,wxupload 3.4,2013-04-16 01:24:00,
2013-04-15 21:30:00,57.6,37.1,32.28,SSE,155,4.0,6.0,46,0.00,NA,NA,-99.99,wxupload 3.4,2013-04-16 01:30:00,
2013-04-15 21:36:00,57.4,37.5,32.28,South,176,3.0,8.0,47,0.00,NA,NA,-99.99,wxupload 3.4,2013-04-16 01:36:00,
2013-04-15 21:42:00,57.2,37.3,32.28,South,179,5.0,6.0,47,0.00,NA,NA,-99.99,wxupload 3.4,2013-04-16 01:42:00,
2013-04-15 21:48:00,57.0,37.1,32.28,SSW,206,5.0,6.0,47,0.00,NA,NA,-99.99,wxupload 3.4,2013-04-16 01:48:00,
2013-04-15 21:54:00,57.0,37.7,32.28,SSW,211,7.0,11.0,48,0.00,NA,NA,-99.99,wxupload 3.4,2013-04-16 01:54:00,
2013-04-15 22:00:00,56.8,37.5,32.28,SSE,154,5.0,8.0,48,0.00,NA,NA,-99.99,wxupload 3.4,2013-04-16 02:00:00,
2013-04-15 22:06:00,56.8,37.5,32.28,SSE,155,0.0,5.0,48,0.00,NA,NA,-99.99,wxupload 3.4,2013-04-16 02:06:00,
2013-04-15 22:12:00,56.7,37.3,32.28,SSW,201,3.0,5.0,48,0.00,NA,NA,-99.99,wxupload 3.4,2013-04-16 02:12:00,
2013-04-15 22:18:00,56.7,37.3,32.28,South,179,0.0,4.0,48,0.00,NA,NA,-99.99,wxupload 3.4,2013-04-16 02:18:00,
2013-04-15 22:24:00,56.7,37.9,32.28,South,187,6.0,6.0,49,0.00,NA,NA,-99.99,wxupload 3.4,2013-04-16 02:24:00,
2013-04-15 22:30:00,56.7,37.9,32.28,South,186,4.0,5.0,49,0.00,NA,NA,-99.99,wxupload 3.4,2013-04-16 02:30:00,
2013-04-15 22:36:00,56.5,37.7,32.28,South,178,5.0,9.0,49,0.00,NA,NA,-99.99,wxupload 3.4,2013-04-16 02:36:00,
2013-04-15 22:42:00,56.5,37.7,32.28,WSW,249,4.0,7.0,49,0.00,NA,NA,-99.99,wxupload 3.4,2013-04-16 02:42:00,
2013-04-15 22:48:00,56.5,37.7,32.28,SSW,204,4.0,5.0,49,0.00,NA,NA,-99.99,wxupload 3.4,2013-04-16 02:48:00,
2013-04-15 22:54:00,56.5,37.7,32.28,South,185,2.0,3.0,49,0.00,NA,NA,-99.99,wxupload 3.4,2013-04-16 02:54:00,
2013-04-15 23:00:00,56.3,37.5,32.28,SE,134,4.0,6.0,49,0.00,NA,NA,-99.99,wxupload 3.4,2013-04-16 03:00:00,
2013-04-15 23:06:00,56.3,37.5,32.28,South,190,7.0,7.0,49,0.00,NA,NA,-99.99,wxupload 3.4,2013-04-16 03:06:00,
2013-04-15 23:12:00,56.3,38.0,32.28,South,171,4.0,8.0,50,0.00,NA,NA,-99.99,wxupload 3.4,2013-04-16 03:12:00,
2013-04-15 23:18:00,56.1,37.4,32.28,SW,215,4.0,5.0,49,0.00,NA,NA,-99.99,wxupload 3.4,2013-04-16 03:18:00,
2013-04-15 23:24:00,56.1,37.9,32.28,South,177,5.0,11.0,50,0.00,NA,NA,-99.99,wxupload 3.4,2013-04-16 03:24:00,
2013-04-15 23:30:00,56.1,37.4,32.28,SSE,161,3.0,5.0,49,0.00,NA,NA,-99.99,wxupload 3.4,2013-04-16 03:30:00,
2013-04-15 23:36:00,55.9,37.2,32.28,South,172,6.0,8.0,49,0.00,NA,NA,-99.99,wxupload 3.4,2013-04-16 03:36:00,
2013-04-15 23:42:00,55.9,37.2,32.28,South,180,0.0,4.0,49,0.00,NA,NA,-99.99,wxupload 3.4,2013-04-16 03:42:00,
2013-04-15 23:48:00,55.9,37.2,32.28,SSE,164,4.0,5.0,49,0.00,NA,NA,-99.99,wxupload 3.4,2013-04-16 03:48:00,
2013-04-15 23:54:00,55.9,37.2,32.28,SSE,154,0.0,0.0,49,0.00,NA,NA,-99.99,wxupload 3.4,2013-04-16 03:54:00,